This is the latest recevied weather packets stored in our database for station/object KE6JJJ-1. If no packets are shown the sender has not sent any weather packets the latest 10 day(s).
| Time | Temp. | Humidity | Pressure | Rain* | Wind** | Luminosity | Snow |
|---|---|---|---|---|---|---|---|
| 1788291303 | 20.56° C | 69% | 1016.3 hPa | 0 mm | - | 431 W/m² | - |
| 1788289506 | 20.56° C | 70% | 1016.4 hPa | 0 mm | - | 501 W/m² | - |
| 1788287703 | 20° C | 71% | 1016.5 hPa | 0 mm | - | 316 W/m² | - |
| 1788285903 | 20° C | 71% | 1016.4 hPa | 0 mm | - | 410 W/m² | - |
| 1788284103 | 18.89° C | 75% | 1016.1 hPa | 0 mm | - | 397 W/m² | - |
| 1788282303 | 18.89° C | 77% | 1016 hPa | 0 mm | - | 279 W/m² | - |
| 1788278703 | 17.78° C | 82% | 1015.6 hPa | 0 mm | - | 93 W/m² | - |
| 1788276903 | 17.22° C | 84% | 1015.5 hPa | 0 mm | - | 148 W/m² | - |
| 1788275126 | 16.67° C | 86% | 1015.1 hPa | 0 mm | - | 107 W/m² | - |
| 1788273303 | 16.67° C | 86% | 1014.7 hPa | 0 mm | - | 41 W/m² | - |
| 1788271503 | 16.67° C | 86% | 1014.5 hPa | 0 mm | - | 19 W/m² | - |
| 1788269703 | 16.67° C | 85% | 1014.2 hPa | 0 mm | - | 0 W/m² | - |
| 1788267903 | 16.67° C | 84% | 1013.8 hPa | 0 mm | - | 0 W/m² | - |
| 1788266103 | 16.67° C | 84% | 1013.8 hPa | 0 mm | - | 0 W/m² | - |
| 1788264303 | 16.67° C | 83% | 1013.6 hPa | 0 mm | - | 0 W/m² | - |
| 1788262503 | 16.67° C | 83% | 1013.7 hPa | 0 mm | - | 0 W/m² | - |
| 1788260703 | 16.67° C | 82% | 1013.9 hPa | 0 mm | - | 0 W/m² | - |
| 1788258903 | 16.67° C | 82% | 1013.8 hPa | 0 mm | - | 0 W/m² | - |
| 1788257104 | 16.67° C | 81% | 1013.5 hPa | 0 mm | - | 0 W/m² | - |
| 1788255303 | 16.67° C | 81% | 1013.5 hPa | 0 mm | - | 0 W/m² | - |
| 1788253525 | 16.67° C | 80% | 1013.5 hPa | 0 mm | - | 0 W/m² | - |
| 1788251724 | 16.67° C | 79% | 1013.5 hPa | 0 mm | - | 0 W/m² | - |
| 1788249903 | 16.67° C | 79% | 1013.5 hPa | 0 mm | - | 0 W/m² | - |
| 1788248103 | 16.67° C | 81% | 1013.5 hPa | 0 mm | - | 0 W/m² | - |
| 1788246352 | 16.67° C | 81% | 1013.6 hPa | 0 mm | - | 0 W/m² | - |
* Rain latest hour (hover to see other rain measurements)
** Current wind speed in m/s (hover to see current wind gust speed)